When you browse on this site, cookies collect data to enhance your experience and personalize the content and advertising you see.
Visit our Privacy Policy to learn more. By continuing to use the site, you agree to this use of cookies and data.
  • In Switzerland
  • List of Countries
  • For 7 days
  • Water Temperature
  • Weather Map
  • Weather Widgets
  • user-avatar
    Login

    Hourly Weather Santa Fe

    Today, 18 October, Friday

    Time Temperature Precipitation Wind Pressure Humidity
    00:00 +15°C° 0 mm 2 mps 760 mmHg 93%
    01:00 +14°C° 0 mm 2 mps 760 mmHg 93%
    02:00 +14°C° 0 mm 1 mps 761 mmHg 93%
    03:00 +14°C° 0 mm 2 mps 761 mmHg 93%
    04:00 +13°C° 0 mm 3 mps 761 mmHg 93%
    05:00 +12°C° 0 mm 3 mps 761 mmHg 94%
    06:00 +14°C° 0 mm 3 mps 762 mmHg 87%
    07:00 +17°C° 0 mm 3 mps 762 mmHg 81%
    08:00 +19°C° 0 mm 3 mps 763 mmHg 75%
    09:00 +20°C° 0 mm 3 mps 763 mmHg 66%
    10:00 +22°C° 0 mm 3 mps 763 mmHg 57%
    11:00 +25°C° 0 mm 4 mps 763 mmHg 47%
    12:00 +26°C° 0 mm 3 mps 763 mmHg 45%
    13:00 +26°C° 0 mm 3 mps 763 mmHg 42%
    14:00 +27°C° 0 mm 3 mps 762 mmHg 40%
    15:00 +26°C° 0 mm 3 mps 762 mmHg 44%
    16:00 +26°C° 0 mm 3 mps 762 mmHg 48%
    17:00 +25°C° 0 mm 3 mps 762 mmHg 52%
    18:00 +22°C° 0 mm 3 mps 763 mmHg 57%
    19:00 +20°C° 0 mm 3 mps 763 mmHg 62%
    20:00 +18°C° 0 mm 3 mps 764 mmHg 67%
    21:00 +17°C° 0 mm 3 mps 764 mmHg 68%
    22:00 +16°C° 0 mm 3 mps 764 mmHg 68%
    23:00 +14°C° 0 mm 3 mps 765 mmHg 69%

    Tomorrow, 19 October, Saturday

    Time Temperature Precipitation Wind Pressure Humidity
    00:00 +15°C° 0 mm 2 mps 765 mmHg 69%
    01:00 +15°C° 0 mm 2 mps 765 mmHg 70%
    02:00 +14°C° 0 mm 2 mps 765 mmHg 70%
    03:00 +14°C° 0 mm 2 mps 765 mmHg 71%
    04:00 +13°C° 0 mm 2 mps 765 mmHg 73%
    05:00 +13°C° 0 mm 2 mps 765 mmHg 74%
    06:00 +15°C° 0 mm 2 mps 766 mmHg 69%
    07:00 +17°C° 0 mm 2 mps 766 mmHg 65%
    08:00 +19°C° 0 mm 2 mps 766 mmHg 60%
    09:00 +20°C° 0 mm 3 mps 766 mmHg 54%
    10:00 +22°C° 0 mm 3 mps 766 mmHg 48%
    11:00 +23°C° 0 mm 4 mps 765 mmHg 41%
    12:00 +25°C° 0 mm 4 mps 765 mmHg 40%
    13:00 +25°C° 0 mm 4 mps 764 mmHg 40%
    14:00 +26°C° 0 mm 4 mps 763 mmHg 39%
    15:00 +25°C° 0 mm 4 mps 763 mmHg 44%
    16:00 +24°C° 0 mm 3 mps 762 mmHg 49%
    17:00 +22°C° 0 mm 3 mps 762 mmHg 54%
    18:00 +21°C° 0 mm 3 mps 762 mmHg 59%
    19:00 +19°C° 0 mm 3 mps 762 mmHg 63%
    20:00 +17°C° 0 mm 3 mps 763 mmHg 68%
    21:00 +17°C° 0 mm 3 mps 762 mmHg 68%
    22:00 +17°C° 0 mm 3 mps 762 mmHg 68%
    23:00 +17°C° 0 mm 3 mps 762 mmHg 68%

    Day after tomorrow, 20 October, Sunday

    Time Temperature Precipitation Wind Pressure Humidity
    00:00 +17°C° 0 mm 3 mps 761 mmHg 68%
    01:00 +17°C° 0 mm 3 mps 761 mmHg 68%
    02:00 +17°C° 0 mm 3 mps 761 mmHg 69%
    03:00 +17°C° 0 mm 3 mps 761 mmHg 70%
    04:00 +16°C° 0 mm 2 mps 761 mmHg 71%
    05:00 +16°C° 0 mm 2 mps 761 mmHg 72%
    06:00 +16°C° 0.1 mm 2 mps 761 mmHg 74%
    07:00 +16°C° 0.1 mm 3 mps 761 mmHg 75%
    08:00 +16°C° 0.1 mm 3 mps 762 mmHg 77%
    09:00 +16°C° 0.1 mm 3 mps 762 mmHg 78%
    10:00 +16°C° 0.1 mm 3 mps 762 mmHg 78%
    11:00 +16°C° 0.1 mm 3 mps 762 mmHg 79%
    12:00 +17°C° 0 mm 3 mps 762 mmHg 75%
    13:00 +17°C° 0 mm 4 mps 761 mmHg 72%
    14:00 +16°C° 0 mm 5 mps 761 mmHg 69%
    15:00 +18°C° 0 mm 4 mps 761 mmHg 67%
    16:00 +18°C° 0 mm 3 mps 761 mmHg 66%
    17:00 +18°C° 0 mm 3 mps 760 mmHg 65%
    18:00 +16°C° 0 mm 2 mps 761 mmHg 69%
    19:00 +14°C° 0 mm 2 mps 761 mmHg 74%
    20:00 +13°C° 0 mm 2 mps 761 mmHg 79%
    21:00 +12°C° 0 mm 1 mps 761 mmHg 79%
    22:00 +12°C° 0 mm 1 mps 761 mmHg 79%
    23:00 +12°C° 0 mm 1 mps 762 mmHg 79%

    21 October, Monday

    Time Temperature Precipitation Wind Pressure Humidity
    00:00 +10°C° 0 mm 0 mps 761 mmHg 80%
    01:00 +10°C° 0 mm 0 mps 761 mmHg 80%
    02:00 +10°C° 0 mm 0 mps 761 mmHg 80%
    03:00 +11°C° 0 mm 1 mps 761 mmHg 79%
    04:00 +12°C° 0 mm 1 mps 761 mmHg 77%
    05:00 +12°C° 0 mm 2 mps 761 mmHg 75%
    06:00 +14°C° 0 mm 2 mps 761 mmHg 73%
    07:00 +15°C° 0 mm 2 mps 762 mmHg 71%
    08:00 +17°C° 0 mm 2 mps 762 mmHg 69%
    09:00 +18°C° 0 mm 2 mps 762 mmHg 65%
    10:00 +19°C° 0 mm 2 mps 762 mmHg 60%
    11:00 +21°C° 0 mm 2 mps 762 mmHg 56%
    12:00 +21°C° 0 mm 2 mps 761 mmHg 54%
    13:00 +23°C° 0 mm 2 mps 761 mmHg 53%
    14:00 +22°C° 0 mm 3 mps 761 mmHg 51%
    15:00 +23°C° 0 mm 2 mps 760 mmHg 53%
    16:00 +23°C° 0 mm 2 mps 760 mmHg 54%
    17:00 +23°C° 0 mm 2 mps 759 mmHg 55%
    18:00 +20°C° 0 mm 2 mps 760 mmHg 61%
    19:00 +18°C° 0 mm 2 mps 760 mmHg 66%
    20:00 +16°C° 0 mm 2 mps 760 mmHg 71%
    21:00 +16°C° 0 mm 2 mps 761 mmHg 73%
    22:00 +15°C° 0 mm 2 mps 761 mmHg 76%
    23:00 +14°C° 0 mm 2 mps 761 mmHg 78%

    22 October, Tuesday

    Time Temperature Precipitation Wind Pressure Humidity
    00:00 +14°C° 0 mm 2 mps 761 mmHg 79%
    01:00 +13°C° 0 mm 2 mps 761 mmHg 80%
    02:00 +13°C° 0 mm 2 mps 761 mmHg 81%
    03:00 +13°C° 0 mm 1 mps 761 mmHg 83%
    04:00 +12°C° 0 mm 1 mps 761 mmHg 85%
    05:00 +12°C° 0 mm 1 mps 761 mmHg 86%
    06:00 +14°C° 0 mm 1 mps 762 mmHg 79%
    07:00 +16°C° 0 mm 1 mps 762 mmHg 71%
    08:00 +19°C° 0 mm 1 mps 762 mmHg 64%
    09:00 +21°C° 0 mm 1 mps 762 mmHg 58%
    10:00 +23°C° 0 mm 1 mps 762 mmHg 53%
    11:00 +25°C° 0 mm 1 mps 762 mmHg 47%
    12:00 +25°C° 0 mm 1 mps 762 mmHg 45%
    13:00 +26°C° 0 mm 1 mps 761 mmHg 42%
    14:00 +27°C° 0 mm 1 mps 760 mmHg 39%
    15:00 +26°C° 0 mm 1 mps 760 mmHg 42%
    16:00 +26°C° 0 mm 1 mps 760 mmHg 44%
    17:00 +26°C° 0 mm 1 mps 759 mmHg 47%
    18:00 +23°C° 0 mm 1 mps 759 mmHg 50%
    19:00 +21°C° 0 mm 1 mps 760 mmHg 53%
    20:00 +19°C° 0 mm 1 mps 760 mmHg 56%
    21:00 +18°C° 0 mm 2 mps 760 mmHg 60%
    22:00 +17°C° 0 mm 2 mps 761 mmHg 64%
    23:00 +17°C° 0 mm 2 mps 761 mmHg 67%

    23 October, Wednesday

    Time Temperature Precipitation Wind Pressure Humidity
    00:00 +16°C° 0 mm 2 mps 761 mmHg 71%
    01:00 +15°C° 0 mm 2 mps 761 mmHg 74%
    02:00 +15°C° 0 mm 2 mps 760 mmHg 78%
    03:00 +14°C° 0 mm 2 mps 761 mmHg 80%
    04:00 +14°C° 0 mm 2 mps 761 mmHg 81%
    05:00 +14°C° 0 mm 1 mps 761 mmHg 83%
    06:00 +16°C° 0 mm 1 mps 761 mmHg 75%
    07:00 +19°C° 0 mm 1 mps 762 mmHg 68%
    08:00 +20°C° 0 mm 2 mps 762 mmHg 60%
    09:00 +23°C° 0 mm 2 mps 762 mmHg 55%
    10:00 +25°C° 0 mm 2 mps 762 mmHg 49%
    11:00 +26°C° 0 mm 1 mps 762 mmHg 43%
    12:00 +27°C° 0 mm 1 mps 761 mmHg 41%
    13:00 +28°C° 0 mm 1 mps 761 mmHg 39%
    14:00 +29°C° 0 mm 1 mps 760 mmHg 37%
    15:00 +28°C° 0 mm 1 mps 760 mmHg 40%
    16:00 +28°C° 0 mm 1 mps 759 mmHg 43%
    17:00 +27°C° 0 mm 1 mps 759 mmHg 46%
    18:00 +25°C° 0 mm 1 mps 759 mmHg 51%
    19:00 +23°C° 0 mm 2 mps 759 mmHg 55%
    20:00 +20°C° 0 mm 3 mps 760 mmHg 60%
    21:00 +19°C° 0 mm 2 mps 760 mmHg 67%
    22:00 +18°C° 0 mm 2 mps 760 mmHg 73%
    23:00 +17°C° 0 mm 2 mps 760 mmHg 80%
    Show more